TimeMST,TemperatureF,Dew PointF,Humidity,Sea Level PressureIn,VisibilityMPH,Wind Direction,Wind SpeedMPH,Gust SpeedMPH,PrecipitationIn,Events,Conditions,WindDirDegrees,DateUTC
12:55 AM,69.8,46.4,43,29.75,10.0,West,15.0,-,N/A,,Clear,260,2013-05-30 07:55:00
1:55 AM,69.8,48.2,46,29.74,10.0,SW,15.0,19.6,N/A,,Clear,230,2013-05-30 08:55:00
2:55 AM,66.2,44.6,46,29.75,10.0,SSE,12.7,-,N/A,,Clear,150,2013-05-30 09:55:00
3:55 AM,64.4,46.4,52,29.76,10.0,Calm,Calm,-,N/A,,Clear,0,2013-05-30 10:55:00
4:55 AM,62.6,44.6,52,29.79,10.0,North,4.6,-,N/A,,Clear,350,2013-05-30 11:55:00
5:55 AM,64.4,46.4,52,29.81,10.0,Calm,Calm,-,N/A,,Clear,0,2013-05-30 12:55:00
6:55 AM,66.2,46.4,49,29.82,10.0,Calm,Calm,-,N/A,,Clear,0,2013-05-30 13:55:00
7:55 AM,69.8,46.4,43,29.84,10.0,NE,6.9,-,N/A,,Clear,40,2013-05-30 14:55:00
8:55 AM,75.2,44.6,34,29.85,10.0,NNE,5.8,-,N/A,,Partly Cloudy,20,2013-05-30 15:55:00
9:55 AM,77.0,35.6,22,29.84,10.0,Calm,Calm,-,N/A,,Partly Cloudy,0,2013-05-30 16:55:00
10:55 AM,80.6,35.6,20,29.84,10.0,NE,9.2,-,N/A,,Partly Cloudy,40,2013-05-30 17:55:00
11:55 AM,82.4,33.8,17,29.83,10.0,Variable,3.5,-,N/A,,Partly Cloudy,0,2013-05-30 18:55:00
12:55 PM,87.8,28.4,12,29.81,10.0,West,10.4,18.4,N/A,,Clear,260,2013-05-30 19:55:00
1:55 PM,87.8,26.6,11,29.79,10.0,West,10.4,21.9,N/A,,Clear,270,2013-05-30 20:55:00
2:55 PM,89.6,24.8,10,29.79,10.0,WNW,16.1,24.2,N/A,,Clear,300,2013-05-30 21:55:00
3:55 PM,89.6,26.6,10,29.78,10.0,West,11.5,23.0,N/A,,Partly Cloudy,260,2013-05-30 22:55:00
4:55 PM,87.8,26.6,11,29.78,10.0,WSW,16.1,25.3,N/A,,Partly Cloudy,250,2013-05-30 23:55:00
5:55 PM,86.0,26.6,12,29.77,10.0,West,17.3,23.0,N/A,,Partly Cloudy,260,2013-05-31 00:55:00
6:55 PM,86.0,26.6,12,29.79,10.0,West,15.0,-,N/A,,Partly Cloudy,260,2013-05-31 01:55:00
7:55 PM,78.8,28.4,16,29.81,10.0,SW,12.7,-,N/A,,Partly Cloudy,230,2013-05-31 02:55:00
8:55 PM,77.0,30.2,18,29.82,10.0,WSW,10.4,-,N/A,,Partly Cloudy,240,2013-05-31 03:55:00
9:55 PM,75.2,32.0,21,29.83,10.0,WSW,13.8,-,N/A,,Clear,240,2013-05-31 04:55:00
10:55 PM,75.2,37.4,25,29.83,10.0,WSW,12.7,-,N/A,,Clear,250,2013-05-31 05:55:00
11:55 PM,71.6,37.4,29,29.83,10.0,WSW,12.7,-,N/A,,Clear,250,2013-05-31 06:55:00